This demonstration page uses our WeatherBlox Daily Observations layout. Learn more.

Left ArrowRight Arrow

Hourly Observations for August 8, 2015

Temp ( °F °C ) Dew Point ( °F °C ) Humidity (%) Winds ( mph kmh ) Pressure ( in mb ) Visibility ( mi km ) Precip ( " mm )
12:22 am 00:22 Cloudy with Nearby Thunderstorms 73 22.8 66 18.9 79 79 WNW 12 19 29.83 1010 6 10 0.00 0.03
12:42 am 00:42 Cloudy with Strong Thunderstorms 72 22.2 67 19.4 84 84 VRB 5 7 29.88 1012 4 6 0.08 2.03
12:45 am 00:45 Cloudy with Strong Thunderstorms 72 22 66 19 83 83 VRB 3 6 29.88 1012 2 3 0.11 2.79
12:51 am 00:51 Cloudy with Strong Thunderstorms 71 21.7 67 19.4 87 87 NW 9 15 29.86 1011 2 2 0.19 4.83
12:55 am 00:55 Cloudy with Thunderstorms 71 21.7 68 20 90 90 WNW 10 17 29.88 1012 3 5 0.01 0.25
1:03 am 01:03 Cloudy with Nearby Thunderstorms 70 21.1 68 20 93 93 NW 8 13 29.88 1012 4 6 0.04 1.02
1:24 am 01:24 Cloudy with Thunderstorms 70 21 68 20 94 94 NW 10 17 29.88 1012 6 10 0.00 0.00
1:39 am 01:39 Cloudy with Nearby Thunderstorms 69 20.6 68 20 96 96 NW 10 17 29.88 1012 3 5 0.12 3.05
1:49 am 01:49 Cloudy with Rain 70 21 68 20 94 94 NNW 13 20 29.88 1012 4 6 0.15 3.81
1:51 am 01:51 Cloudy with Rain 69 20.6 68 20 96 96 NW 13 20 29.85 1011 5 8 0.16 4.06
2:51 am 02:51 Cloudy with Light Rain 70 21.1 68 20 93 93 N 8 13 29.87 1012 8 13 0.07 1.78
3:51 am 03:51 Mostly Cloudy with Rain 70 21.1 67 19.4 90 90 NW 8 13 29.87 1012 6 10 0.10 2.54
4:51 am 04:51 Cloudy with Rain 70 21.1 68 20 93 93 W 6 9 29.88 1012 7 11 0.07 1.78
5:51 am 05:51 Mostly Cloudy 68 20 67 19.4 96 96 WSW 5 7 29.89 1012 10 16 0.02 0.51
6:51 am 06:51 Cloudy 69 20.6 65 18.3 87 87 N 5 7 29.90 1013 10 16 0.00 0.00
7:51 am 07:51 Mostly Sunny 72 22.2 66 18.9 82 82 NNW 3 6 29.90 1013 10 16 0.00 0.00
8:51 am 08:51 Sunny 73 22.8 67 19.4 81 81 SW 5 7 29.92 1013 10 16 0.00 0.00
9:51 am 09:51 Sunny 90 32.2 76 24.4 63 63 Calm 29.96 1015 10 16 0.00 0.03
10:51 am 10:51 Sunny 81 27.2 63 17.2 54 54 Calm 29.89 1012 10 16 0.00 0.00
11:51 am 11:51 Sunny 84 28.9 62 16.7 48 48 VRB 6 9 29.87 1011 10 16 0.00 0.00
12:51 pm 12:51 Sunny 88 31.1 57 13.9 35 35 NW 8 13 29.83 1010 10 16 0.00 0.00
1:51 pm 13:51 Sunny 90 32.2 59 15 35 35 W 8 13 29.81 1010 10 16 0.00 0.00
2:51 pm 14:51 Sunny 92 33.3 55 12.8 29 29 NW 7 11 29.78 1009 10 16 0.00 0.00
3:51 pm 15:51 Sunny 92 33.3 56 13.3 30 30 W 9 15 29.76 1008 10 16 0.00 0.00
4:51 pm 16:51 Sunny 91 32.8 57 13.9 32 32 W 8 13 29.75 1007 10 16 0.00 0.00
5:51 pm 17:51 Sunny 89 31.7 61 16.1 39 39 WSW 6 9 29.76 1008 10 16 0.00 0.00
6:51 pm 18:51 Sunny 88 31.1 61 16.1 40 40 SW 5 7 29.77 1008 10 16 0.00 0.00
7:51 pm 19:51 Clear 83 28.3 68 20 61 61 NW 3 6 29.78 1009 10 16 0.00 0.00
8:51 pm 20:51 Clear 83 28.3 68 20 61 61 Calm 29.81 1010 10 16 0.00 0.00
9:51 pm 21:51 Clear 81 27.2 71 21.7 72 72 Calm 29.82 1010 10 16 0.00 0.00
10:51 pm 22:51 Clear 77 25 69 20.6 77 77 N 7 11 29.82 1010 10 16 0.00 0.00
11:51 pm 23:51 Clear 79 26.1 65 18.3 62 62 NNW 6 9 29.82 1010 10 16 0.00 0.00

Powered by AerisWeather